Regional Weather Roundup
Issued by NWS

Home | Current Version | Previous Version | Graphics & Text | Print | Product List | Glossary On
Versions: 1 2 3 4 5 6 7 8 9 10 11 12 13 14 15 16 17 18 19 20 21 22 23 24 25 26 27 28 29 30 31 32 33 34 35 36 37 38 39 40 41 42 43 44 45 46 47 48 49 50
000
ASUS43 KOAX 071402
RWRNE

WEATHER ROUNDUP FOR NEBRASKA
NATIONAL WEATHER SERVICE OMAHA NE
800 AM CST WED DEC 07 2016

NOTES: SATELLITE DATA IS BEING USED TO AUGMENT CLOUD COVER ABOVE
       12000 FEET.
       "FAIR" INDICATES FEW OR NO CLOUDS BELOW 12,000 FEET WITH NO
       SIGNIFICANT WEATHER AND/OR OBSTRUCTIONS TO VISIBILITY.

  * THESE STATIONS DO NOT REPORT WEATHER SUCH AS RAIN...SNOW OR FOG.

NEZ001>004-019>022-054>056-071500-
NEBRASKA PANHANDLE

CITY           SKY/WX    TMP DP  RH WIND       PRES   REMARKS
SCOTTSBLUFF    LGT SNOW   7   1  76 NW13      30.22R WCI  -9
ALLIANCE       LGT SNOW   6   1  80 NW10      30.19R WCI  -9
CHADRON        CLOUDY     7  -3  64 NW16G24   30.27R WCI -11
KIMBALL        CLOUDY     6   2  85 N12       30.13R WCI -10
SIDNEY         LGT SNOW   8   4  83 N8        30.16R FOG     WCI  -4
$$

NEZ057>060-069>072-079>082-071500-
SOUTHWEST NEBRASKA

CITY           SKY/WX    TMP DP  RH WIND       PRES   REMARKS
NORTH PLATTE   LGT SNOW  13   2  61 N10       30.25R WCI   0
IMPERIAL       LGT SNOW  12   8  84 NE9       30.21R FOG     WCI   0
LEXINGTON      CLOUDY    15   4  61 N13G18    30.26R WCI   2
MCCOOK         LGT SNOW  14  10  84 N7        30.27R FOG     WCI   4
OGALLALA       LGT SNOW  13   8  82 N9        30.23R WCI   1
$$

NEZ005>010-023>029-035>040-094-071500-
NORTH CENTRAL NEBRASKA

CITY           SKY/WX    TMP DP  RH WIND       PRES   REMARKS
VALENTINE      CLOUDY     6  -5  60 NW15G24   30.26R WCI -12
AINSWORTH      CLOUDY     8  -1  65 NW20      30.24S WCI -11
BROKEN BOW     CLOUDY    13   2  61 NW13G18   30.23R WCI  -2
O`NEILL        CLOUDY    10   1  66 NW20G26   30.26R WCI  -8
ORD            CLOUDY    13   1  59 NW14      30.25R WCI  -2
THEDFORD       CLOUDY    10   0  63 NW15G24   30.24R WCI  -6
$$

NEZ041-046>049-061>064-073>077-083>087-071500-
SOUTH CENTRAL NEBRASKA

CITY           SKY/WX    TMP DP  RH WIND       PRES   REMARKS
GRAND ISLAND   CLOUDY    15   4  61 NW14      30.27R WCI   0
AURORA         CLOUDY    15   5  62 NW13      30.25R WCI   2
HASTINGS       CLOUDY    16   4  59 N14       30.27R WCI   2
HEBRON         FLURRIES  18  10  71 N8        30.28R WCI   8
HOLDREGE       CLOUDY    15   9  77 N8        30.25R WCI   4
KEARNEY *      CLOUDY    16   1  53 N10       30.26R WCI   3
YORK           CLOUDY    16   7  67 N8        30.25R WCI   5
$$

NEZ011>018-030>034-042>045-071500-
NORTHEAST NEBRASKA

CITY           SKY/WX    TMP DP  RH WIND       PRES   REMARKS
NORFOLK        CLOUDY    12   2  64 NW15      30.24R WCI  -4
ALBION         CLOUDY    13   3  64 NW14      30.25R WCI  -2
BLAIR          MOCLDY    16   7  69 NW16G23   30.23S WCI   0
FREMONT        MOCLDY    16   7  69 NW12      30.26R WCI   2
TEKAMAH        CLOUDY    15   7  70 NW14      30.27R WCI   0
WAYNE          CLOUDY    13   6  73 NW14G20   30.25R WCI  -2
$$

NEZ050>053-065>068-078-088>093-071500-
SOUTHEAST NEBRASKA

CITY           SKY/WX    TMP DP  RH WIND       PRES   REMARKS
LINCOLN        CLOUDY    19   7  59 NW12      30.27S WCI   7
OMAHA EPPLEY   MOCLDY    16   6  65 NW16      30.26R WCI   1
BEATRICE       CLOUDY    20   9  63 N9        30.27R WCI   9
FALLS CITY     CLOUDY    23  13  65 NW9       30.26R WCI  13
NEBRASKA CITY  CLOUDY    19   6  58 N9        30.26S WCI   7
PLATTSMOUTH    CLOUDY    18   6  60 NW10      30.25S WCI   6
$$

NEZ044-045-051>053-067-071500-
OMAHA AREA

CITY           SKY/WX    TMP DP  RH WIND       PRES   REMARKS
OMAHA EPPLEY   MOCLDY    16   6  65 NW16      30.26R WCI   1
BLAIR          MOCLDY    16   7  69 NW16G23   30.23S WCI   0
FREMONT        MOCLDY    16   7  69 NW12      30.26R WCI   2
MILLARD        CLOUDY    18   8  66 NW8       30.26S WCI   7
OFFUTT AFB     CLOUDY    17   8  66 NW12      30.26R WCI   4
PLATTSMOUTH    CLOUDY    18   6  60 NW10      30.25S WCI   6
WAHOO          CLOUDY    17   7  65 NW12      30.25S WCI   4
$$




USA.gov is the U.S. government's official web portal to all federal, state and local government web resources and services.